Dewpoint
58 52 40 32 25 23 22 19 19 18 18 22 25 25 26 32 29 27 59 65 67 68 71 70 71 71 71 71 71 72 72 72 72 72 72 72 72 72 72 71 70 70 69 69 69 70 70 70 70
49 45 31 27 22 18 16 21 19 18 20 26 28 29 35 44 56 59 64 66 66 68 70 70 71 71 71 71 71 72 72 72 72 71 72 72 71 72 71 71 71 70 69 68 69 69 69 69 69
45 40 28 24 22 18 16 20 19 20 21 22 20 25 43 46 57 60 63 66 67 67 69 70 70 70 71 71 71 71 71 71 71 71 71 71 71 70 71 70 70 70 70 68 69 69 69 69 68
39 37 30 24 23 24 20 20 24 19 18 20 20 25 45 55 59 61 66 67 66 67 68 68 70 70 71 71 71 71 71 71 70 70 70 71 71 70 70 70 70 70 70 69 69 69 68 67 67
33 29 24 23 22 23 24 23 21 18 17 21 20 23 45 58 61 64 67 67 67 67 66 67 68 70 71 72 71 71 71 69 69 68 69 69 70 70 69 69 69 68 68 68 69 68 67 67 66
28 27 23 21 20 22 22 23 21 21 22 24 25 43 49 59 61 64 65 66 68 67 66 67 69 70 71 71 71 70 70 68 67 67 67 67 68 68 68 69 68 68 68 68 67 67 66 66 65
28 24 22 21 19 20 21 22 21 22 20 24 32 41 48 58 60 61 63 66 66 66 66 66 67 68 69 69 69 69 68 67 67 66 66 65 65 65 66 67 67 68 67 67 67 66 66 65 64
30 27 27 22 21 20 21 20 21 19 18 23 33 43 49 56 60 61 62 63 64 65 65 65 65 66 67 69 68 68 67 66 66 66 66 66 65 65 65 65 66 67 67 65 66 65 65 63 63
29 26 23 23 20 20 22 21 24 21 19 20 29 47 47 58 60 60 58 59 60 63 63 63 63 63 63 66 67 68 67 66 66 66 66 65 63 63 63 65 65 66 66 64 66 65 63 61 61
32 28 26 25 22 22 24 22 22 20 18 18 22 49 57 59 58 58 58 58 58 60 61 63 62 62 63 65 65 65 67 66 65 65 64 62 60 62 64 65 65 66 65 65 65 64 61 60 59
31 28 28 26 25 25 24 24 24 19 17 20 20 33 57 58 57 57 57 57 57 59 61 62 62 62 63 63 63 65 64 63 63 63 62 61 62 62 63 63 64 64 63 63 62 61 54 57 56
29 27 30 29 28 27 24 24 21 19 20 23 20 32 56 56 56 56 56 57 58 58 60 60 61 61 61 62 62 64 64 63 62 62 61 60 62 62 63 63 62 62 63 61 61 57 52 53 53
30 30 30 30 29 27 26 25 23 22 24 26 22 33 54 55 56 56 55 55 57 58 59 60 60 61 62 61 61 63 63 63 62 62 61 61 61 62 63 63 63 63 62 59 58 55 51 52 53
27 27 27 28 29 28 27 26 24 23 25 24 24 24 50 54 54 54 54 55 57 58 59 59 59 60 60 61 60 61 62 62 62 62 61 61 62 62 62 62 62 62 61 58 56 53 51 52 53
27 26 26 26 27 26 26 24 23 25 24 23 23 23 29 50 53 53 53 53 56 58 59 58 58 59 60 60 60 60 61 62 62 62 62 62 62 61 62 61 60 60 59 56 54 52 51 51 52
27 29 26 27 27 27 25 23 25 26 24 23 23 24 24 25 44 52 52 52 55 58 58 58 59 58 58 58 58 59 62 62 62 63 62 62 62 61 60 61 59 58 57 53 52 50 50 52 52
27 23 25 26 28 26 23 23 25 26 25 25 26 27 27 27 26 28 48 50 56 58 58 58 58 57 57 57 57 57 61 62 63 62 62 62 62 61 60 59 58 56 55 52 51 50 50 51 52
22 25 26 25 25 25 25 24 25 24 25 26 29 29 29 26 25 28 36 50 56 58 58 58 58 57 57 58 58 58 60 61 62 63 62 62 62 60 59 58 56 54 52 52 50 49 50 51 52
25 25 25 23 24 21 21 20 20 19 24 28 28 29 28 27 29 42 52 56 57 58 57 57 57 58 58 57 57 57 58 58 60 62 62 61 62 60 59 57 55 52 51 51 49 49 50 50 52
20 20 20 20 22 20 20 17 15 22 27 27 28 30 31 30 41 51 55 56 56 57 56 56 56 57 57 57 56 56 56 56 58 59 60 62 62 60 58 57 55 47 50 51 49 49 50 49 51
13 14 13 15 14 14 19 15 20 24 25 28 28 30 30 30 36 51 55 56 56 56 56 56 56 56 56 56 55 55 55 55 55 56 58 59 62 60 59 57 55 47 52 51 48 49 49 48 49
9 12 10 10 9 6 21 7 10 20 22 27 29 29 27 30 36 49 54 55 55 55 56 56 56 55 55 56 54 54 53 53 53 54 55 57 59 61 59 58 55 49 54 51 49 49 49 49 47
13 17 14 13 9 11 16 25 18 27 25 23 24 29 30 31 31 48 53 54 55 55 55 56 55 55 56 55 53 53 53 53 53 53 54 56 57 60 59 57 54 52 55 52 50 50 50 49 50
24 19 20 20 17 20 18 26 17 18 25 28 29 31 36 31 30 46 51 54 54 54 55 55 55 55 55 54 53 52 53 52 52 52 53 54 55 57 58 57 55 55 55 53 52 52 50 51 51
20 19 20 21 24 19 27 27 21 25 28 30 35 40 39 36 32 45 52 54 54 53 54 54 54 54 54 54 53 52 52 53 52 52 53 54 54 54 56 57 56 55 55 54 53 52 52 51 51
18 20 20 15 18 17 26 25 24 33 36 39 40 40 39 39 38 43 51 54 53 53 53 54 54 54 53 53 53 52 52 52 52 52 52 53 54 54 55 55 55 55 55 54 54 53 53 53 52
17 20 21 20 24 23 25 27 25 33 40 40 41 40 40 39 41 44 51 53 53 53 54 54 54 53 53 53 52 51 51 51 52 52 52 52 54 54 55 55 55 55 55 55 54 55 53 54 54
16 20 20 23 18 17 18 20 21 35 40 40 40 41 41 40 41 47 52 53 54 54 54 54 54 53 53 53 52 51 51 51 51 52 51 51 52 53 54 54 55 55 55 55 54 53 54 54 55
18 20 23 22 24 18 17 18 37 37 38 41 43 43 42 42 40 51 52 53 54 54 54 54 54 53 53 53 52 51 51 51 51 51 51 50 51 51 52 52 53 53 53 53 53 52 52 54 54
19 21 25 22 20 24 23 21 34 33 40 42 43 45 42 43 40 42 52 53 54 54 54 54 54 53 53 53 53 51 52 51 51 50 51 51 50 51 51 52 52 53 53 53 52 51 51 53 53
Lifted_Index
8 9 10 8 5 4 3 4 4 4 4 5 5 4 3 1 0 -1 -3 -5 -5 -5 -5 -5 -5 -5 -5 -4 -5 -5 -6 -6 -6 -6 -6 -6 -6 -6 -6 -5 -5 -4 -4 -4 -4 -4 -4 -4 -4
9 10 9 7 4 3 3 4 4 4 5 5 5 4 3 1 -1 -2 -4 -5 -5 -4 -5 -5 -5 -5 -5 -4 -5 -5 -6 -6 -6 -6 -6 -6 -6 -6 -6 -6 -5 -5 -4 -4 -4 -4 -4 -4 -4
10 9 8 6 3 2 3 4 5 5 5 5 5 4 3 -0 -2 -3 -4 -4 -4 -4 -4 -5 -5 -5 -5 -4 -5 -5 -6 -6 -6 -6 -6 -6 -6 -6 -6 -6 -6 -5 -5 -4 -4 -4 -4 -3 -3
9 9 7 4 2 2 4 5 5 6 6 6 5 4 2 -1 -3 -3 -4 -5 -4 -4 -4 -4 -5 -5 -5 -5 -5 -5 -6 -5 -5 -5 -5 -5 -6 -6 -5 -5 -5 -5 -5 -4 -4 -4 -3 -3 -3
9 8 6 4 2 3 4 5 5 5 6 6 5 4 1 -1 -3 -4 -4 -5 -4 -4 -4 -4 -4 -4 -5 -5 -5 -5 -5 -5 -4 -4 -4 -4 -5 -5 -5 -5 -5 -4 -4 -4 -4 -3 -3 -3 -2
9 8 6 4 3 3 4 5 5 5 5 6 5 4 1 -1 -3 -4 -4 -5 -5 -5 -4 -4 -4 -4 -5 -5 -5 -5 -5 -4 -3 -3 -3 -3 -3 -3 -4 -4 -4 -4 -4 -3 -3 -3 -2 -2 -2
9 8 6 4 3 3 4 5 5 5 5 6 5 4 1 -1 -3 -4 -4 -5 -5 -5 -4 -4 -3 -3 -4 -5 -5 -5 -5 -4 -4 -3 -2 -2 -2 -2 -2 -3 -3 -3 -2 -2 -2 -2 -1 -1 -1
9 8 6 4 3 3 4 5 6 6 6 6 5 4 2 -1 -3 -3 -4 -4 -5 -5 -4 -4 -3 -3 -3 -4 -5 -5 -5 -4 -4 -3 -2 -2 -1 -1 -1 -2 -2 -2 -2 -1 -1 -1 -0 0 1
8 7 6 4 3 3 4 6 6 6 6 6 5 3 1 -1 -2 -2 -3 -3 -4 -4 -4 -3 -2 -2 -2 -3 -4 -4 -4 -4 -4 -3 -3 -2 -1 -1 -1 -1 -2 -1 -1 -1 -0 -0 1 1 1
7 6 5 5 5 5 5 6 7 6 6 6 5 3 0 -1 -2 -2 -2 -2 -2 -3 -3 -2 -2 -1 -1 -2 -3 -3 -3 -4 -3 -3 -3 -2 -1 -0 -1 -1 -1 -1 -1 -0 0 1 1 2 2
7 6 6 5 6 6 6 7 7 7 6 6 5 4 1 -1 -2 -1 -1 -0 -0 -1 -2 -2 -2 -1 -1 -1 -2 -2 -2 -3 -3 -2 -2 -1 0 0 -0 -0 -0 0 0 1 1 2 2 2 2
6 6 6 6 6 6 6 6 7 7 6 6 6 4 1 -1 -1 -1 -1 -0 0 -0 -1 -2 -2 -1 -1 -1 -1 -1 -2 -2 -2 -1 -1 0 0 0 -0 0 1 1 1 2 2 2 2 2 3
6 7 7 7 7 6 6 6 6 6 6 5 5 4 2 -0 -1 -1 -1 -0 0 -0 -1 -2 -2 -2 -1 -1 -1 -1 -1 -1 -1 -1 -0 0 0 0 0 0 1 2 2 2 2 3 3 3 4
7 7 7 7 7 6 6 5 6 6 5 5 5 4 3 1 -0 -0 -1 -0 -0 -0 -1 -2 -2 -2 -2 -1 -1 -1 -1 -1 -1 -0 -0 0 1 1 1 1 1 2 2 2 3 3 4 4 4
7 6 6 6 6 5 5 5 5 5 4 4 4 4 4 3 1 0 -0 -0 -0 -1 -1 -2 -2 -1 -1 -1 -1 -1 -1 -1 -1 -0 0 1 1 1 1 1 2 2 2 3 3 3 4 4 4
6 5 5 6 5 5 4 4 5 4 4 4 5 5 5 4 3 2 1 0 -0 -1 -1 -2 -2 -1 -1 -1 -1 -1 -1 -1 -0 -0 0 1 1 1 1 2 2 3 3 3 4 4 4 5 4
5 5 5 5 5 4 4 5 5 5 5 5 5 5 4 4 3 3 2 1 0 -1 -1 -1 -1 -1 -0 -0 -0 -1 -1 -0 -0 0 1 1 1 1 1 2 3 3 4 5 5 4 4 5 5
5 5 5 5 5 4 5 6 6 5 5 5 5 5 4 3 3 3 3 2 1 -0 -1 -1 -1 -1 -0 0 0 0 0 0 0 1 1 1 1 1 1 2 3 4 5 6 6 5 5 5 5
6 5 5 6 5 5 6 6 6 6 6 5 5 4 4 3 3 3 2 2 1 -0 -1 -1 -1 -1 -0 0 1 2 2 1 1 1 1 1 1 1 1 2 3 5 7 7 7 6 5 5 5
6 6 6 6 6 6 6 7 7 7 6 6 5 5 4 3 3 2 2 1 1 -0 -1 -1 -1 -0 -0 1 2 2 3 2 2 1 1 2 1 1 1 2 3 5 7 8 7 7 6 5 5
6 6 6 6 6 6 6 6 7 7 7 7 6 5 4 3 3 2 1 1 0 -1 -1 -1 -1 -1 -0 1 2 3 3 3 2 2 1 2 1 1 1 1 3 4 6 7 7 7 6 6 5
5 6 6 6 6 6 5 5 6 7 7 7 6 6 5 4 3 2 1 1 0 -1 -2 -1 -1 -1 -0 1 3 3 3 3 2 2 2 2 2 1 1 1 1 3 5 7 7 6 6 6 6
5 5 5 5 5 5 5 4 5 6 7 6 6 5 5 4 3 2 1 0 -0 -1 -1 -1 -1 -1 -0 1 3 3 3 3 3 3 3 3 2 2 1 0 1 3 5 7 7 6 6 6 6
5 4 4 3 3 4 4 4 4 6 6 6 5 4 4 3 3 2 1 -0 -0 -1 -1 -1 -1 -1 -0 1 3 4 3 3 3 3 3 3 3 2 1 1 1 3 5 6 6 6 6 6 6
4 3 2 2 2 2 3 4 5 5 5 4 4 3 3 2 2 2 1 -0 -0 -1 -1 -1 -1 -1 0 2 3 4 3 3 3 3 3 3 3 2 2 1 2 3 5 6 6 6 6 6 6
3 3 2 1 1 2 3 4 5 4 3 3 2 2 2 2 2 1 0 -0 -1 -1 -1 -1 -1 -1 0 2 3 3 3 3 3 3 3 3 3 3 2 2 3 3 5 6 6 6 6 6 6
3 3 2 1 1 2 3 4 4 3 2 2 2 1 1 2 1 1 0 -0 -1 -1 -1 -1 -1 -1 1 2 4 3 3 2 3 3 3 3 3 3 3 3 4 4 5 6 6 6 6 6 6
2 2 1 1 1 1 2 3 3 2 2 2 2 1 1 1 1 0 -0 -1 -1 -1 -1 -1 -1 -1 1 3 4 3 3 2 3 3 3 3 3 3 4 4 4 4 5 5 6 6 6 6 5
1 1 1 1 0 0 1 2 2 2 2 2 3 2 2 2 1 0 -1 -1 -1 -1 -2 -2 -2 -1 1 3 4 3 3 2 2 3 3 3 3 4 4 4 4 4 5 5 5 5 5 5 5
1 1 0 0 0 0 0 1 1 1 2 2 3 3 2 2 2 1 -1 -1 -1 -2 -2 -2 -2 -1 0 3 4 3 3 2 2 3 3 4 4 4 4 4 4 4 4 5 5 5 5 5 5